Location: Unspecified
(54.1780°N, 0.0000°E)
Time: 10:33:14
(UTC+00:00)

Transit 2A Rocket - All Passes

Search period start: 17 June 2019 00:00
Search period end: 27 June 2019 00:00
Orbit: 586 x 917 km, 66.7° (Epoch: 16 June)

Date Brightness Start Highest point End Pass type
(mag) Time Alt. Az. Time Alt. Az. Time Alt. Az.
17 Jun - 10:40:53 10° S 10:45:58 28° ESE 10:50:57 10° NE daylight
17 Jun - 12:22:03 10° SW 12:28:12 81° NW 12:34:04 10° NE daylight
17 Jun - 14:06:14 10° W 14:11:37 32° NNW 14:16:44 10° NE daylight
17 Jun - 15:51:15 10° NW 15:55:53 23° N 16:00:14 10° NE daylight
17 Jun - 17:35:01 10° NW 17:40:07 33° NNE 17:44:50 10° E daylight
17 Jun - 19:17:51 10° NW 19:23:26 88° SW 19:28:26 10° SE daylight
17 Jun - 21:01:31 10° WNW 21:05:14 19° WSW 21:08:43 10° SSW daylight
18 Jun - 09:59:40 10° SSE 10:03:47 19° ESE 10:07:50 10° ENE daylight
18 Jun - 11:39:33 10° SSW 11:45:39 74° SE 11:51:31 10° NE daylight
18 Jun - 13:23:06 10° W 13:28:46 39° NNW 13:34:09 10° NE daylight
18 Jun - 15:08:09 10° WNW 15:12:52 24° N 15:17:19 10° NE daylight
18 Jun - 16:52:20 10° NW 16:57:13 28° NNE 17:01:44 10° ENE daylight
18 Jun - 18:35:17 10° NW 18:40:50 66° NE 18:45:52 10° SE daylight
18 Jun - 20:18:26 10° NW 20:23:05 30° WSW 20:27:20 10° S daylight
19 Jun - 09:19:27 10° SE 09:21:42 12° ESE 09:23:56 10° E daylight
19 Jun - 10:57:18 10° SSW 11:03:12 52° ESE 11:08:54 10° NE daylight
19 Jun - 12:40:05 10° WSW 12:45:59 50° NW 12:51:37 10° NE daylight
19 Jun - 14:24:58 10° WNW 14:29:52 26° NNW 14:34:31 10° NE daylight
19 Jun - 16:09:33 10° NW 16:14:15 25° NNE 16:18:38 10° ENE daylight
19 Jun - 17:52:43 10° NW 17:58:09 48° NE 18:03:05 10° ESE daylight
19 Jun - 19:35:38 10° NW 19:40:49 46° WSW 19:45:30 10° SSE daylight
20 Jun - 10:15:21 10° S 10:20:51 36° ESE 10:26:11 10° NE daylight
20 Jun - 11:57:14 10° SW 12:03:19 67° NW 12:09:06 10° NE daylight
20 Jun - 13:41:45 10° W 13:46:55 29° NNW 13:51:49 10° NE daylight
20 Jun - 15:26:39 10° NW 15:31:14 23° N 15:35:33 10° ENE daylight
20 Jun - 17:10:08 10° NW 17:15:22 37° NNE 17:20:09 10° E daylight
20 Jun - 18:52:58 10° NW 18:58:26 69° SW 19:03:20 10° SSE daylight
20 Jun - 20:37:16 10° WNW 20:39:57 14° WSW 20:42:30 10° SW daylight
21 Jun - 09:33:47 10° SSE 09:38:35 25° ESE 09:43:17 10° ENE daylight
21 Jun - 11:14:34 10° SW 11:20:43 89° NNW 11:26:34 10° NE daylight
21 Jun - 12:58:33 10° W 13:04:01 34° NNW 13:09:12 10° NE daylight
21 Jun - 14:43:38 10° NW 14:48:13 23° N 14:52:33 10° NE daylight
21 Jun - 16:27:30 10° NW 16:32:30 30° NNE 16:37:06 10° E daylight
21 Jun - 18:10:22 10° NW 18:15:55 82° NE 18:20:53 10° SE daylight
21 Jun - 19:53:49 10° WNW 19:57:51 22° WSW 20:01:37 10° SSW daylight
22 Jun - 08:52:49 10° SE 08:56:26 16° ESE 09:00:00 10° ENE daylight
22 Jun - 10:32:09 10° SSW 10:38:12 66° SE 10:43:59 10° NE daylight
22 Jun - 12:15:27 10° WSW 12:21:12 42° NNW 12:26:38 10° NE daylight
22 Jun - 14:00:30 10° WNW 14:05:13 24° N 14:09:40 10° NE daylight
22 Jun - 15:44:48 10° NW 15:49:34 26° NNE 15:54:00 10° ENE daylight
22 Jun - 17:27:48 10° NW 17:33:17 59° NE 17:38:15 10° ESE daylight
22 Jun - 19:10:52 10° NW 19:15:40 34° WSW 19:20:03 10° S daylight
23 Jun - 08:13:55 10° ESE 08:14:23 10° E 08:14:52 10° E daylight
23 Jun - 09:49:59 10° S 09:55:46 46° ESE 10:01:20 10° NE daylight
23 Jun - 11:32:29 10° WSW 11:38:27 55° NW 11:44:06 10° NE daylight
23 Jun - 13:17:17 10° WNW 13:22:14 26° NNW 13:26:54 10° NE daylight
23 Jun - 15:01:59 10° NW 15:06:35 24° N 15:10:53 10° ENE daylight
23 Jun - 16:45:14 10° NW 16:50:34 44° NE 16:55:25 10° ESE daylight
23 Jun - 18:28:06 10° NW 18:33:22 52° WSW 18:38:06 10° SSE daylight
24 Jun - 09:08:10 10° S 09:13:27 32° ESE 09:18:34 10° NE daylight
24 Jun - 10:49:42 10° SW 10:55:47 74° NW 11:01:35 10° NE daylight
24 Jun - 12:34:03 10° W 12:39:18 30° NNW 12:44:15 10° NE daylight
24 Jun - 14:19:03 10° NW 14:23:34 23° N 14:27:50 10° NE daylight
24 Jun - 16:02:39 10° NW 16:07:45 34° NNE 16:12:26 10° E daylight
24 Jun - 17:45:28 10° NW 17:50:56 79° SW 17:55:49 10° SSE daylight
24 Jun - 19:29:25 10° WNW 19:32:35 16° WSW 19:35:36 10° SW daylight
25 Jun - 08:26:46 10° SSE 08:31:13 22° ESE 08:35:34 10° ENE daylight
25 Jun - 10:07:07 10° SW 10:13:13 82° SE 10:19:02 10° NE daylight
25 Jun - 11:50:53 10° W 11:56:25 37° NNW 12:01:39 10° NE daylight
25 Jun - 13:35:59 10° WNW 13:40:33 23° N 13:44:52 10° NE daylight
25 Jun - 15:20:00 10° NW 15:24:51 29° NNE 15:29:22 10° E daylight
25 Jun - 17:02:53 10° NW 17:08:23 73° NE 17:13:19 10° SE daylight
25 Jun - 18:46:11 10° WNW 18:50:29 26° WSW 18:54:27 10° SSW daylight
26 Jun - 07:46:07 10° SE 07:49:06 14° ESE 07:52:02 10° ENE daylight
26 Jun - 09:24:46 10° SSW 09:30:45 59° ESE 09:36:27 10° NE daylight
26 Jun - 11:07:50 10° WSW 11:13:37 46° NW 11:19:06 10° NE daylight
26 Jun - 12:52:48 10° WNW 12:57:33 24° NNW 13:02:02 10° NE daylight
26 Jun - 14:37:16 10° NW 14:41:55 25° NNE 14:46:15 10° ENE daylight
26 Jun - 16:20:20 10° NW 16:25:44 52° NE 16:30:37 10° ESE daylight
26 Jun - 18:03:18 10° NW 18:08:15 39° WSW 18:12:44 10° S daylight
